Timeline UpdatesTrip UpdatesNews PostsPvt PostsTravel TipsAdmin PostsConv PostsFollowed PostsChat RequestsBlog PostsPNR Posts

Disclaimer
Search
 
 
Fri Aug 22, 2014 21:15:33 ISTHomeTrainsΣChainsAtlasPNRForumGalleryNewsFAQTripsMembersLoginFeedback
No Recent News for this Train
Other Trains in the News **new
Latest...
..
Tue Jul 15, 2014 (10:54AM)
⇐ Return Journey: Train# 18237

18238/Chhattisgarh Express

Sep 16 2013 (7:54PM)
Change Departure Station:
Change Arrival Station:
Post a Train Travel TipPost a Train Travel Tip **new
Post a Comment/Question/Picture/VideoPost a Comment/Question/Picture/Video
Inaugural Run
Sat Jan 01, 1977
Pantry/Catering
✓ Pantry Car Avbl
✓ Catering Avbl
Loco/Rake Reversals
NGP/Nagpur Junction (8);
RSA - Rake Sharing
0
Rake/Coach Composition
LOCO-SLR-GS-GS-S1-S2-S3-S4-S5-S6-S7-S8-S9-S10-PC-S11-S12-B3-B2-B1-A1-HA1-GS-SLR-SP1
Loco
ASR - NZM ---- TKD WDP4 NZM - NGP --- AJNI...
Read more...
WAP7 NGP - BSP --- ET WAP4 Author: Mahesh Gupta Entry# 295348
News    PNR    Forum    Time-Table    Availability    Fare Chart    Map    Arr/Dep History    Trips    Gallery    ΣChains    X/O    Timeline    
Travel Time: 6h 24m    11 halts    Distance: 283 km    Avg Speed: 44 km/hr
Type: Mail/Express
Zone: SECR/South East Central
Departs @ 05:56 (Avg 30m late)
Platform# ???
SMTWTFS
Gondia Junction/G 
Arrives @ 12:20 (Avg 11m late)
Platform# 8
SMTWTFS
Bilaspur Junction/BSP 

11 halts. 38 intermediate Stations between Gondia Junction and Bilaspur Junction

Show ALL intermediate Stations  Show Old Time-Table

#CodeStation NameX/OArrivesAvgDepartsAvgHaltPFDay#KmSpeedElevZoneAddress
1ASRAmritsar Junction (5)  -16:15+521-1728.477233mNRAmritsar 143002, Punjab
2JNLJandiala (2)  16:30+1516:32+152m21-1709.280238mNRJandiala, Punjab
3BEASBeas Junction (2)  16:50+1716:52+172m21-1685.361238mNRBeas, Punjab
4KREKartarpur (2)X  17:13+1617:15+162m11-1663.968236mNRKartarpur, Punjab
5JUCJalandhar City Junction (5)X  17:28+1817:35+187m21-1649.222239mNRJalandhar 144001, Punjab
6JRCJalandhar Cantt. Junction (3)X  17:48+1417:50+262m21-1644.465239mNRNear Rama Mandi, Punjab
7PGWPhagwara Junction (3)X  18:05+2718:07+272m11-1628.142245mNRPhagwara, Punjab
8GRYGoraya (2)XO  18:21+2518:23+282m11-1618.333240mNRGoraya, Punjab
9PHRPhillaur Junction (3)  18:46+1718:48+172m11-1605.546246mNRPhillaur, Punjab
10LDHLudhiana Junction (7)X  19:05+1619:15+1810m11-1592.422246mNRLudhiana 141001, Punjab
11SNLSanehwal (3)X  19:56+019:58+52m21-1577.349260mNRLudhiana, Punjab
12DOADoraha (2)X  20:07+1020:08+111m21-1570.057261mNRDoraha, Punjab
13CHAChawapail (2)X  20:18+1220:20+122m21-1560.666267mNRLudhiana, Punjab
14KNNKhanna (3)  20:30+1320:32+132m21-1549.654269mNRNH 1, Punjab
15GVGMandi Gobindgarh (2)  20:41+1420:43+142m21-1541.549268mNRMandi Gobindgarh, Punjab
16SIRSirhind Junction (3)  20:55+1420:57+142m21-1531.765271mNRSirhind, Punjab
17RPJRajpura Junction (3)X  21:20+1621:22+162m21-1506.953272mNRNH-1, Punjab
18UBCAmbala City (3)X  21:45+1321:46+151m11-1486.421273mNRNH-1, Haryana
19UMBAmbala Cantt. Junction (7)X  22:08+1122:20+1012m21-1478.868278mNRAmbala 133001, Haryana
20RAABarara (2)  22:42+1622:44+162m11-1454.171279mNRBarara, Haryana
21JUDWJagadhri Workshop (2)  23:02+1623:04+162m11-1432.843280mNRRailway Workshop Road, Haryana
22JUDYamunanagar-Jagadhri (3)  23:11+1723:13+182m21-1427.835275mNRYamunanagar, Haryana
23SRESaharanpur Junction (6)X  00:05+300:15+510m32-1397.768276mNRSaharanpur, Uttar Pradesh
24DBDDeoband (2)  00:45+1700:47+182m12-1363.576258mNRSaharanpur, Uttar Pradesh
25MOZMuzaffarnagar (3)  01:06+2101:08+212m12-1339.551247mNRMuzaffarNagar, Uttar Pradesh
26KATKhatauli (2)X  01:34+1601:36+222m--2-1317.354239mNRKhatauli, Uttar Pradesh
27DRLADaurala (1)  01:56+1901:58+192m12-1299.361232mNRMeerut, Uttar Pradesh
28MUTMeerut Cantt. (2)  02:09+2202:11+222m12-1288.229230mNRMeerut, Uttar Pradesh
29MTCMeerut City Junction (6)  02:20+2102:25+205m22-1283.983229mNRMeerut, Uttar Pradesh
30MDNRModinagar (2)  02:39+2302:41+232m--2-1264.478221mNRGhaziabad, Uttar Pradesh
31GUHGuldhar (2)  02:55+2402:57+242m--2-1246.319224mNRGhaziabad, Uttar Pradesh
32GZBGhaziabad Junction (6)  03:28+1103:30+112m32-1236.640217mNRGhaziabad, Uttar Pradesh
33SBBSahibabad Junction (5)  03:40+1603:41+171m--2-1229.928209mNRGhaziabad, Uttar Pradesh
34NZMDelhi Hazrat Nizamuddin (7)X04:15+1204:40+1225m22-1213.960209mNRNew Delhi 110013, Delhi NCT
35BVHBallabgarh (5)X  05:09+1505:11+152m42-1185.042203mNRFaridabad, Haryana
36PWLPalwal (8)X  05:41+905:43+102m42-1163.985200mNRPalwal, Haryana
37KSVKosi Kalan (3)X  06:13+1706:15+172m22-1121.456189mNCRKosi Kalan, Uttar Pradesh
38CHJChata (4)X  06:26+1806:28+192m12-1111.169 NCRChhata, Uttar Pradesh
39MTJMathura Junction (10)X  06:55+2007:00+205m12-1079.962179mNCRMathura, Uttar Pradesh
40RKMRaja Ki Mandi (4)XO  07:48+3407:50+342m22-1030.36170mNCRAgra, Uttar Pradesh
41AGCAgra Cantt. (6)X  08:30+708:40+1010m12-1026.279174mNCRAgra, Uttar Pradesh
42DHODholpur Junction (3)X  09:20+2209:22+362m22-973.770177mNCRDholpur, Rajasthan
43MRAMorena (3)X  09:45+4309:50+465m12-946.872176mNCRMorena, Madhya Pradesh
44BAOBanmorO  10:06+5110:08+572m--2-927.531189mNCRGwalior, Madhya Pradesh
45GWLGwalior Junction (4)XO  10:45+5110:50+555m12-908.363214mNCRGwalior, Madhya Pradesh
46DBADabra (3)  11:30+5411:32+542m32-866.063 NCRDabra(District-Gwalior), Madhya Pradesh
47SORSonagir (2)O  11:50+5611:52+572m--2-847.130211mNCRDatia, Madhya Pradesh
48DAADatia (2)X  12:15+4912:17+512m--2-835.628264mNCRDatia, Madhya Pradesh
49JHSJhansi Junction (7)  13:10+2613:20+3010m--2-810.561259mNCRJhansi, Uttar Pradesh
50BABBabina (3)  13:45+3913:47+402m12-785.060285mNCRBabina, Uttar Pradesh
51BZYBasai (3)X  13:59+4214:01+422m12-772.948287mNCR07522289600(Gate ManMob. - 9452701575), Madhya Pradesh
52TBTTalbahat (4)  14:17+4114:19+442m22-760.183314mNCRKhaniyadhana Station Rd, Madhya Pradesh
53LARLalitpur (3)  14:48+4714:50+482m12-720.285373mNCRLalitpur, Uttar Pradesh
54DUADhaura (3)XO  15:10+5715:12+582m--2-691.928407mNCRDhaura Tanda, Madhya Pradesh
55BINABina Junction (4)X  16:25+3016:30+325m22-657.369414mWCRJn Pt - KATNI/GUNA/ BPL/JHS, Madhya Pradesh
56MABAMandi Bamora (3)XO  16:45+3716:47+372m22-640.178413mWCRState Highway 14, Madhya Pradesh
57BAQGanj Basoda (4)  17:09+4017:11+412m22-611.684 WCRVidisha, Madhya Pradesh
58BHSVidisha (3)X  17:39+5017:41+522m22-572.354 WCRVidisha, Madhya Pradesh
59BPLBhopal Junction (6)X  18:40+4518:45+475m12-518.838497mWCRBhopal, Madhya Pradesh
60HBJBhopal HabibGanj (5)  18:55+5018:57+502m--2-512.577496mWCRHabibGanj, Madhya Pradesh
61ODGObaidulla GanjX  19:20+5319:22+512m--2-482.933 WCRObaidullaganj Raisen Dist., Madhya Pradesh
62HBDHoshangabad (2)XO  20:30+3520:32+382m22-445.129308mWCRHoshangabad, Madhya Pradesh
63ETItarsi Junction (7)  21:10+2721:15+335m32-427.068329mWCRItarsi 461111, Madhya Pradesh
64GDYAGhoradongri (3)X  22:17+3822:19+392m--2-356.750 CRBetul, Madhya Pradesh
65BZUBetul (3)  23:02+4723:05+463m--2-320.746644mCRBetul, Madhya Pradesh
66AMLAAmla Junction (5)  23:35+3900:10+2735m12-297.898733mCRAmla Distt. Betul, Madhya Pradesh
67MTYMultai (2)  00:24+3100:26+312m--3-275.058762mCRMultai, Madhya Pradesh
68PARPandhurna (2)  01:08+3301:10+332m13-234.285481mCRDistt: Chhindwara, Madhya Pradesh
69NRKRNarkher Junction (4)X  01:23+3801:25+382m--3-215.966411mCRNarkher, Maharashtra
70KATLKatol (2)X  01:48+3901:50+392m--3-190.737 CRKatol, Maharashtra
71NGPNagpur Junction (8)03:30+1003:55+1325m63-129.948314mCRNagpur 440001, Maharashtra
72KPKamptee (3)X  04:13+2004:15+222m--3-115.596290mSECRMH 441001, Maharashtra
73BRDBhandara Road (2)X  04:45+3004:47+312m23-67.677266mSECRState Highway 252, Maharashtra
74TMRTumsar Road (3)  05:01+3005:03+302m--3-49.781267mSECRBhandara, Maharashtra
75TROTirora (3)  05:18+3205:20+342m--3-29.357282mSECRDist Gondiya, Maharashtra
76Gondia Junction (7)»X  05:51+3105:56+305m--30.098316mSECRGondia 441601, Maharashtra
77AGNAmgaon (2)  06:10+3706:12+372m--322.880317mSECRGondia, Maharashtra
78SKSSalekasa (2)  06:23+3906:25+392m--337.556312mSECRRajnandgaon, Chhattisgarh
79DGGDongargarh (2)  07:03+3707:05+392m--373.363353mSECRDongargarh, Chhattisgarh
80RJNRaj Nandgaon (3)  07:35+3107:40+305m--3104.830313mSECRRajnandgaon, Chhattisgarh
81DURGDurg Junction (6)X  08:40+808:55+915m--3135.360299mSECRPh: 91-788-2322059, Chhattisgarh
82BPHBBhilai Power House (3)X  09:04+1309:06+132m--3144.243312mSECRBhilai, Chhattisgarh
83RRaipur Junction (6)  09:45+1109:55+1510m53172.269297mSECRRaipur, Chhattisgarh
84TLDTilda (3)X  10:28+2510:30+252m--3210.449291mSECRBanjari Rd, Chhattisgarh
85HNHathbandhX  10:43+2410:45+242m--3221.171283mSECRRaipur, Chhattisgarh
86BYTBhatapara (4)X  10:58+2511:00+252m--3236.461270mSECRBanjari Road, Chhattisgarh
87BYLBelhaX  11:30+2411:32+252m--3267.119269mSECRCollege Road, Chhattisgarh
88BSP•Bilaspur Junction (8)•  12:20+11-83282.6-271mSECRBilaspur, Chhattisgarh
Scroll to Top
Scroll to Bottom